x

Middle Nomad (46004) Wave Buoy

9:00am - Mon 3rd Aug 2015 All times are PDT. -7 hours from GMT.

  • Sig Wave height 4.3ft
  • Peak Period 5s
  • Wind
    16mph, 18mph gusts
  • Sea Temp 60°f
  • Air Temp 59°f
  • Sea Pressure 1023.2mb
  • Middle Nomad
  • Middle Nomad

More Historic Weather Station data

Upgrade to MSW Pro to gain access to the past 30 days of data for over 8000 Wavebouys and Weather Stations around the globe.

Join Pro

Comparision Forecast

View Surf forecast
   
Mon 08/03 9:00am 4.5ft 5s 16 18 mph 1023.2mb 60f 59f
8:00am 4.5ft 5s 16 18 mph 1022.6mb 60f 59f
7:00am 4.5ft  -  16 20 mph 1022.2mb 60f 59f
6:00am 4.5ft 5s 16 20 mph 1022mb 60f 59f
5:00am 4.5ft 5s 16 18 mph 1021.8mb 61f 59f
4:00am 4.5ft 5s 18 20 mph 1021.6mb 61f 59f
3:00am 4.5ft 5s 18 22 mph 1021.6mb 61f 59f
2:00am 4.5ft 5s 18 20 mph 1021.6mb 61f 59f
1:00am 4.5ft 5s 18 20 mph 1021.6mb 61f 59f
12:00am 4.5ft 5s 16 20 mph 1021.4mb 61f 59f
Sun 08/02 11:00pm 4.5ft 5s 16 18 mph 1021.4mb 61f 59f
10:00pm 4.5ft 5s 18 20 mph 1021.1mb 61f 59f
9:00pm 4.5ft 5s 18 20 mph 1020.9mb 61f 59f
8:00pm 4.5ft 5s 16 20 mph 1020.5mb 61f 59f
6:00pm 4.5ft 5s 18 20 mph 1020.4mb 61f 59f
5:00pm 4.5ft 5s 16 20 mph 1020.2mb 61f 59f
4:00pm 4ft 12s 18 20 mph 1020.1mb 61f 59f
3:00pm 4.5ft 5s 16 20 mph 1020mb 61f 59f
2:00pm 4.5ft 5s 16 20 mph 1019.9mb 61f 59f
1:00pm 4.5ft 5s 18 20 mph 1019.7mb 61f 59f
12:00pm 4.5ft 5s 18 20 mph 1019.5mb 60f 59f
11:00am 4.5ft 5s 18 20 mph 1019.4mb 60f 59f
10:00am 4.5ft 5s 16 20 mph 1019mb 60f 59f
9:00am 4ft 4s 18 20 mph 1018.7mb 60f 59f
8:00am 4ft 14s 18 22 mph 1018.2mb 61f 58f
7:00am 3.5ft 14s 20 22 mph 1017.7mb 61f 58f
6:00am 3.5ft 14s 11 13 mph 1017.1mb 61f 59f
5:00am 3.5ft 14s 11 13 mph 1017.1mb 60f 59f
4:00am 3.5ft 14s 11 18 mph 1016.9mb 61f 59f
3:00am 3.5ft 14s 13 16 mph 1017mb 61f 59f
2:00am 3.5ft 14s 16 20 mph 1017.3mb 61f 60f
1:00am 3.5ft 14s 13 16 mph 1017.6mb 61f 60f
12:00am 3.5ft 13s 11 13 mph 1017.8mb 61f 60f
Sat 08/01 11:00pm 3.5ft 14s 13 16 mph 1018.2mb 61f 60f
10:00pm 3.5ft 15s 13 18 mph 1018.4mb 61f 61f
9:00pm 3.5ft 14s 13 16 mph 1018.8mb 61f 61f
8:00pm 3.5ft 14s 11 13 mph 1019.1mb 61f 61f
7:00pm 3.5ft 14s 13 18 mph 1019.5mb 61f 61f
6:00pm 3.5ft 14s 7 9 mph 1019.8mb 61f 61f
5:00pm 3.5ft 14s 7 9 mph 1020.2mb 61f 61f
4:00pm 3.5ft 14s 9 11 mph 1020.4mb 61f 61f
3:00pm 3.5ft 14s 9
mph
1020.6mb 61f 61f
2:00pm 3.5ft 14s 7 9 mph 1020.9mb 60f 60f
1:00pm 3.5ft 14s 9 11 mph 1021.3mb 60f 59f
12:00pm 3.5ft 15s 9 11 mph 1021.6mb 60f 59f
11:00am 3.5ft 15s 11 13 mph 1021.6mb 60f 58f
10:00am 3.5ft 14s 13 16 mph 1021.7mb 60f 58f
9:00am 3.5ft 14s 11 16 mph 1021.8mb 60f 58f
8:00am 3.5ft 14s 11 13 mph 1021.8mb 60f 58f
7:00am 3.5ft 14s 11 13 mph 1021.8mb 60f 58f
6:00am 3.5ft 15s 9 11 mph 1021.6mb 60f 58f
5:00am 3.5ft 14s 9
mph
1021.6mb 60f 58f
4:00am 3.5ft 14s 7 9 mph 1021.7mb 60f 58f
3:00am 3.5ft 14s 9
mph
1021.5mb 60f 58f
2:00am 3.5ft 14s 7 9 mph 1022mb 60f 58f
1:00am 3.5ft 15s 9
mph
1022.1mb 60f 58f
12:00am 3.5ft 14s 7 9 mph 1022.2mb 61f 58f
Fri 07/31 11:00pm 3.5ft 14s 7 9 mph 1022.3mb 61f 58f
10:00pm 4ft 14s 7 9 mph 1022.2mb 61f 58f
9:00pm 4ft 14s 4 7 mph 1022mb 61f 58f
8:00pm 4ft 14s 4 7 mph 1022.2mb 61f 58f
7:00pm 4.5ft 15s 4 7 mph 1022mb 61f 58f
6:00pm 4.5ft 15s 7 9 mph 1022.2mb 61f 58f
5:00pm 4.5ft 14s 2 4 mph 1022.1mb 61f 59f
3:00pm 4.5ft 14s 2 4 mph 1022.1mb 61f 60f
2:00pm 4.5ft 16s 4
mph
1022mb 60f 59f
1:00pm 4.5ft 15s 7 9 mph 1021.9mb 60f 58f
12:00pm 5ft 8s 4
mph
1021.4mb 60f 59f
11:00am 5ft 15s 7 9 mph 1021.2mb 60f 59f
10:00am 5ft 15s 7 9 mph 1021mb 60f 59f
9:00am 5.5ft 8s 4 7 mph 1020.6mb 60f 60f
8:00am 5.5ft 7s 9 11 mph 1020.5mb 60f 59f
7:00am 6ft 8s 11 13 mph 1020mb 60f 60f
6:00am 6.5ft 7s 13 16 mph 1019.5mb 60f 59f
5:00am 7ft 8s 13 18 mph 1019.3mb 60f 60f
4:00am 7ft 8s 18 22 mph 1019.2mb 60f 60f
3:00am 7ft 8s 20 25 mph 1019.1mb 60f 60f
2:00am 6.5ft 7s 20 25 mph 1019.1mb 60f 60f
1:00am 7ft 8s 18 22 mph 1019.1mb 60f 61f
12:00am 6ft 8s 20 22 mph 1019.1mb 60f 61f
Thu 07/30 11:00pm 6ft 7s 18 22 mph 1019.3mb 60f 61f
10:00pm 6.5ft 7s 18 22 mph 1019.4mb 60f 61f
9:00pm 6ft 7s 20 22 mph 1019.1mb 60f 61f
8:00pm 6ft 15s 18 22 mph 1019.3mb 60f 61f
7:00pm 6ft 16s 20 25 mph 1019.6mb 60f 61f